TimeEDT,TemperatureF,Dew PointF,Humidity,Sea Level PressureIn,VisibilityMPH,Wind Direction,Wind SpeedMPH,Gust SpeedMPH,PrecipitationIn,Events,Conditions,WindDirDegrees,DateUTC
12:06 AM,33.8,30.2,87,30.07,1.5,Calm,Calm,-,0.01,Rain,Rain,0,2013-03-18 04:06:00
12:27 AM,33.8,30.2,87,30.07,2.0,Calm,Calm,-,0.02,Rain,Light Rain,0,2013-03-18 04:27:00
12:46 AM,33.8,30.2,87,30.06,1.8,Calm,Calm,-,0.03,Rain,Light Rain,0,2013-03-18 04:46:00
12:51 AM,33.1,30.9,92,30.12,2.0,Calm,Calm,-,0.03,Rain,Light Rain,0,2013-03-18 04:51:00
1:06 AM,33.8,30.2,87,30.05,3.0,Calm,Calm,-,0.00,Rain,Light Rain,0,2013-03-18 05:06:00
1:51 AM,36.0,30.9,82,30.11,7.0,SE,5.8,-,0.02,Rain,Light Rain,130,2013-03-18 05:51:00
2:51 AM,36.0,30.0,79,30.10,7.0,SE,8.1,-,0.04,Rain,Light Rain,140,2013-03-18 06:51:00
3:51 AM,36.0,28.9,76,30.10,7.0,SE,8.1,-,0.07,Rain,Rain,140,2013-03-18 07:51:00
4:51 AM,35.1,28.0,76,30.09,8.0,SE,11.5,-,0.04,Rain,Light Rain,140,2013-03-18 08:51:00
5:51 AM,35.1,28.0,76,30.08,10.0,SE,9.2,-,0.02,,Overcast,140,2013-03-18 09:51:00
6:51 AM,36.0,27.0,70,30.08,10.0,SE,11.5,-,N/A,,Overcast,140,2013-03-18 10:51:00
7:51 AM,36.0,27.0,70,30.06,10.0,SSE,6.9,-,N/A,,Mostly Cloudy,150,2013-03-18 11:51:00
8:51 AM,36.0,27.0,70,30.04,10.0,SSE,12.7,23.0,N/A,,Clear,160,2013-03-18 12:51:00
9:51 AM,37.9,28.9,70,30.02,10.0,SSE,16.1,25.3,N/A,,Clear,150,2013-03-18 13:51:00
10:51 AM,37.0,28.9,73,30.01,10.0,SE,15.0,21.9,N/A,,Overcast,130,2013-03-18 14:51:00
11:51 AM,37.0,28.9,73,29.99,10.0,SE,13.8,20.7,0.00,Rain,Light Rain,140,2013-03-18 15:51:00
12:51 PM,37.0,30.9,79,29.99,9.0,Variable,3.5,16.1,0.01,Rain,Rain,0,2013-03-18 16:51:00
1:03 PM,37.4,30.2,75,29.93,10.0,SSE,8.1,-,0.01,Rain,Light Rain,160,2013-03-18 17:03:00
1:43 PM,37.4,30.2,75,29.90,10.0,SSE,12.7,23.0,0.01,Rain,Light Rain,150,2013-03-18 17:43:00
1:51 PM,37.9,30.9,76,29.95,10.0,SSE,9.2,-,0.01,Rain,Light Rain,150,2013-03-18 17:51:00
2:51 PM,39.0,33.1,79,29.93,10.0,South,8.1,18.4,0.01,Rain,Light Rain,170,2013-03-18 18:51:00
3:50 PM,33.8,32.0,93,29.60,1.5,South,4.6,-,N/A,,Light Drizzle,180,2013-03-18 19:50:00
3:51 PM,37.9,33.1,83,29.92,10.0,South,8.1,-,0.03,Rain,Light Rain,180,2013-03-18 19:51:00
4:51 PM,39.9,33.1,77,29.88,10.0,South,6.9,18.4,0.00,,Overcast,180,2013-03-18 20:51:00
5:51 PM,42.1,34.0,73,29.81,10.0,South,11.5,-,N/A,,Mostly Cloudy,170,2013-03-18 21:51:00
6:51 PM,43.0,34.0,71,29.81,10.0,South,9.2,-,N/A,,Mostly Cloudy,170,2013-03-18 22:51:00
7:51 PM,43.0,34.0,71,29.82,10.0,South,6.9,-,N/A,,Clear,180,2013-03-18 23:51:00
8:51 PM,42.1,34.0,73,29.82,10.0,SE,3.5,-,N/A,,Scattered Clouds,140,2013-03-19 00:51:00
9:51 PM,43.0,35.1,74,29.81,10.0,South,6.9,-,N/A,,Overcast,170,2013-03-19 01:51:00
10:51 PM,42.1,36.0,79,29.81,10.0,SE,4.6,-,N/A,,Overcast,140,2013-03-19 02:51:00
11:51 PM,42.1,36.0,79,29.81,10.0,Calm,Calm,-,N/A,,Overcast,0,2013-03-19 03:51:00